Meteo pe oră la Allieres

Astăzi, 21 Ianuarie, Joi

Timp Temperatura Precipitaţii Vânt Presiune Umiditate
00:00 -2°C° 0 mm 3 m/s 635 mmHg 81%
01:00 -4°C° 0.2 mm 3 m/s 635 mmHg 83%
02:00 -4°C° 0.2 mm 3 m/s 635 mmHg 86%
03:00 -4°C° 0.2 mm 3 m/s 635 mmHg 88%
04:00 -4°C° 0 mm 3 m/s 635 mmHg 89%
05:00 -4°C° 0 mm 3 m/s 635 mmHg 89%
06:00 -3°C° 0 mm 2 m/s 635 mmHg 90%
07:00 -2°C° 0.1 mm 2 m/s 635 mmHg 90%
08:00 -2°C° 0.1 mm 2 m/s 636 mmHg 91%
09:00 -1°C° 0.1 mm 2 m/s 636 mmHg 91%
10:00 +1°C° 0 mm 2 m/s 636 mmHg 90%
11:00 +1°C° 0 mm 3 m/s 636 mmHg 89%
12:00 +2°C° 0 mm 3 m/s 636 mmHg 88%
13:00 +2°C° 0 mm 3 m/s 636 mmHg 89%
14:00 +1°C° 0 mm 3 m/s 635 mmHg 90%
15:00 +1°C° 0 mm 3 m/s 634 mmHg 91%
16:00 +1°C° 0 mm 3 m/s 634 mmHg 91%
17:00 0°C° 0 mm 3 m/s 634 mmHg 91%
18:00 0°C° 0 mm 3 m/s 633 mmHg 91%
19:00 0°C° 0.4 mm 3 m/s 633 mmHg 91%
20:00 0°C° 0.4 mm 3 m/s 633 mmHg 92%
21:00 0°C° 0.4 mm 3 m/s 633 mmHg 92%
22:00 0°C° 0.5 mm 3 m/s 633 mmHg 93%
23:00 -1°C° 0.5 mm 3 m/s 633 mmHg 94%

Mâine, 22 Ianuarie, Vineri

Timp Temperatura Precipitaţii Vânt Presiune Umiditate
00:00 -1°C° 0.5 mm 2 m/s 632 mmHg 95%
01:00 -1°C° 0.4 mm 2 m/s 632 mmHg 94%
02:00 -1°C° 0.4 mm 2 m/s 632 mmHg 94%
03:00 -1°C° 0.4 mm 2 m/s 631 mmHg 93%
04:00 -2°C° 0.1 mm 2 m/s 631 mmHg 92%
05:00 -2°C° 0.1 mm 2 m/s 630 mmHg 91%
06:00 -2°C° 0.1 mm 2 m/s 630 mmHg 90%
07:00 -2°C° 0 mm 2 m/s 629 mmHg 89%
08:00 -1°C° 0 mm 2 m/s 629 mmHg 87%
09:00 -1°C° 0 mm 2 m/s 628 mmHg 85%
10:00 -1°C° 0.9 mm 2 m/s 627 mmHg 88%
11:00 -1°C° 0.9 mm 2 m/s 627 mmHg 91%
12:00 -1°C° 0.9 mm 2 m/s 626 mmHg 94%
13:00 -1°C° 3.1 mm 2 m/s 625 mmHg 95%
14:00 -1°C° 3.1 mm 2 m/s 625 mmHg 96%
15:00 -2°C° 3.1 mm 2 m/s 624 mmHg 97%
16:00 0°C° 2 mm 1 m/s 624 mmHg 96%
17:00 0°C° 2 mm 1 m/s 625 mmHg 96%
18:00 -1°C° 2 mm 1 m/s 625 mmHg 96%
19:00 -4°C° 2.3 mm 2 m/s 625 mmHg 97%
20:00 -5°C° 2.3 mm 3 m/s 626 mmHg 97%
21:00 -6°C° 2.3 mm 3 m/s 626 mmHg 97%
22:00 -6°C° 1.8 mm 3 m/s 626 mmHg 97%
23:00 -7°C° 1.8 mm 3 m/s 627 mmHg 97%

Poimâine, 23 Ianuarie, Sâmbătă

Timp Temperatura Precipitaţii Vânt Presiune Umiditate
00:00 -6°C° 1.8 mm 2 m/s 627 mmHg 97%
01:00 -6°C° 0.4 mm 2 m/s 628 mmHg 97%
02:00 -6°C° 0.4 mm 2 m/s 628 mmHg 97%
03:00 -7°C° 0.4 mm 2 m/s 628 mmHg 97%
04:00 -6°C° 0 mm 1 m/s 627 mmHg 96%
05:00 -7°C° 0 mm 1 m/s 627 mmHg 95%
06:00 -8°C° 0 mm 1 m/s 627 mmHg 93%
07:00 -7°C° 0 mm 1 m/s 627 mmHg 92%
08:00 -6°C° 0 mm 1 m/s 628 mmHg 91%
09:00 -4°C° 0 mm 1 m/s 628 mmHg 90%
10:00 -3°C° 0.2 mm 1 m/s 628 mmHg 90%
11:00 -4°C° 0.2 mm 2 m/s 627 mmHg 91%
12:00 -4°C° 0.2 mm 2 m/s 627 mmHg 91%
13:00 -4°C° 0.3 mm 2 m/s 627 mmHg 92%
14:00 -4°C° 0.3 mm 2 m/s 626 mmHg 93%
15:00 -4°C° 0.3 mm 2 m/s 626 mmHg 94%
16:00 -4°C° 1.3 mm 2 m/s 626 mmHg 95%
17:00 -5°C° 1.3 mm 2 m/s 627 mmHg 95%
18:00 -5°C° 1.3 mm 2 m/s 627 mmHg 96%
19:00 -6°C° 1.1 mm 2 m/s 627 mmHg 96%
20:00 -4°C° 1.1 mm 1 m/s 628 mmHg 96%
21:00 -6°C° 1.1 mm 1 m/s 628 mmHg 96%
22:00 -6°C° 0.3 mm 1 m/s 628 mmHg 96%
23:00 -6°C° 0.3 mm 1 m/s 628 mmHg 96%

24 Ianuarie, Duminică

Timp Temperatura Precipitaţii Vânt Presiune Umiditate
00:00 -7°C° 0.3 mm 1 m/s 628 mmHg 96%
01:00 -7°C° 0 mm 1 m/s 628 mmHg 96%
02:00 -8°C° 0 mm 1 m/s 628 mmHg 95%
03:00 -8°C° 0 mm 1 m/s 627 mmHg 95%
04:00 -8°C° 0 mm 1 m/s 627 mmHg 94%
05:00 -9°C° 0 mm 1 m/s 627 mmHg 94%
06:00 -9°C° 0 mm 1 m/s 627 mmHg 93%
07:00 -10°C° 0 mm 2 m/s 628 mmHg 93%
08:00 -9°C° 0 mm 2 m/s 628 mmHg 92%
09:00 -8°C° 0 mm 2 m/s 629 mmHg 92%
10:00 -6°C° 0 mm 1 m/s 629 mmHg 90%
11:00 -4°C° 0 mm 1 m/s 629 mmHg 88%
12:00 -3°C° 0 mm 1 m/s 629 mmHg 86%
13:00 -3°C° 0 mm 1 m/s 629 mmHg 85%
14:00 -3°C° 0 mm 1 m/s 629 mmHg 85%
15:00 -3°C° 0 mm 1 m/s 629 mmHg 84%
16:00 -3°C° 0.4 mm 1 m/s 630 mmHg 87%
17:00 -6°C° 0.4 mm 2 m/s 630 mmHg 90%
18:00 -7°C° 0.4 mm 2 m/s 630 mmHg 92%
19:00 -7°C° 1.6 mm 2 m/s 630 mmHg 94%
20:00 -6°C° 1.6 mm 1 m/s 630 mmHg 96%
21:00 -6°C° 1.6 mm 1 m/s 630 mmHg 98%
22:00 -7°C° 0.9 mm 1 m/s 631 mmHg 97%
23:00 -8°C° 0.9 mm 2 m/s 631 mmHg 97%

25 Ianuarie, Luni

Timp Temperatura Precipitaţii Vânt Presiune Umiditate
00:00 -8°C° 0.9 mm 2 m/s 632 mmHg 96%
01:00 -9°C° 0.6 mm 2 m/s 632 mmHg 96%
02:00 -9°C° 0.6 mm 2 m/s 632 mmHg 95%
03:00 -8°C° 0.6 mm 1 m/s 633 mmHg 95%
04:00 -9°C° 0.4 mm 1 m/s 633 mmHg 95%
05:00 -10°C° 0.4 mm 2 m/s 634 mmHg 95%
06:00 -10°C° 0.4 mm 2 m/s 634 mmHg 95%
07:00 -8°C° 0.1 mm 1 m/s 635 mmHg 94%
08:00 -8°C° 0.1 mm 1 m/s 636 mmHg 93%
09:00 -8°C° 0.1 mm 1 m/s 636 mmHg 92%
10:00 -7°C° 0 mm 1 m/s 637 mmHg 90%
11:00 -6°C° 0 mm 1 m/s 637 mmHg 87%
12:00 -4°C° 0 mm 1 m/s 638 mmHg 85%
13:00 -4°C° 0 mm 1 m/s 638 mmHg 86%
14:00 -4°C° 0 mm 1 m/s 638 mmHg 87%
15:00 -4°C° 0 mm 1 m/s 638 mmHg 88%
16:00 -7°C° 0 mm 1 m/s 638 mmHg 88%
17:00 -8°C° 0 mm 1 m/s 638 mmHg 88%
18:00 -10°C° 0 mm 1 m/s 637 mmHg 88%
19:00 -10°C° 0 mm 1 m/s 638 mmHg 86%
20:00 -10°C° 0 mm 1 m/s 638 mmHg 84%
21:00 -10°C° 0 mm 1 m/s 638 mmHg 82%
22:00 -11°C° 0 mm 1 m/s 638 mmHg 81%
23:00 -11°C° 0 mm 1 m/s 638 mmHg 80%

26 Ianuarie, Marţi

Timp Temperatura Precipitaţii Vânt Presiune Umiditate
00:00 -11°C° 0 mm 1 m/s 638 mmHg 79%
01:00 -11°C° 0 mm 1 m/s 638 mmHg 79%
02:00 -11°C° 0 mm 1 m/s 638 mmHg 79%
03:00 -11°C° 0 mm 1 m/s 638 mmHg 79%
04:00 -11°C° 0 mm 1 m/s 638 mmHg 81%
05:00 -11°C° 0 mm 1 m/s 638 mmHg 84%
06:00 -10°C° 0 mm 1 m/s 639 mmHg 86%
07:00 -9°C° 0 mm 1 m/s 639 mmHg 87%
08:00 -8°C° 0 mm 1 m/s 640 mmHg 89%
09:00 -7°C° 0 mm 1 m/s 641 mmHg 90%
10:00 -6°C° 0 mm 1 m/s 641 mmHg 90%
11:00 -4°C° 0 mm 1 m/s 641 mmHg 90%
12:00 -3°C° 0 mm 1 m/s 641 mmHg 89%
13:00 -3°C° 0 mm 1 m/s 641 mmHg 90%
14:00 -3°C° 0 mm 1 m/s 640 mmHg 90%
15:00 -3°C° 0 mm 1 m/s 640 mmHg 91%
16:00 -3°C° 0 mm 1 m/s 640 mmHg 89%
17:00 -4°C° 0 mm 1 m/s 640 mmHg 87%
18:00 -5°C° 0 mm 0 m/s 640 mmHg 85%
19:00 -4°C° 0 mm 1 m/s 640 mmHg 84%
20:00 -4°C° 0 mm 1 m/s 640 mmHg 84%
21:00 -4°C° 0 mm 1 m/s 641 mmHg 83%
22:00 -4°C° 0.3 mm 1 m/s 641 mmHg 87%
23:00 -3°C° 0.3 mm 1 m/s 641 mmHg 90%
Arată mai mult

Formular de consimțământ

Meteoprog și furnizorii noștri de servicii pot stoca și accesa date personale, precum cookies, identificatori de dispozitiv sau alte tehnologii similare pe dispozitivul dumneavoastră și procesa astfel de date pentru a personaliza conținutul și reclamele, dar și pentru a oferi caracteristici de social media și pentru a analiza traficul.

  • Stocarea și/sau accesarea informațiilor pe dispozitivul dumneavoastră

    Cookies, identificatori de dispozitiv sau alte informații pot fi stocate sau accesate pe dispozitiv în scopurile indicate mai sus.

  • Reclame și conținut personalizat, evaluarea reclamelor și a conținutului, informații despre audiențe și dezvoltarea produselor

    Reclamele și conținutul pot fi personalizate pe baza unui profil. Pot fi adăugate date suplimentare pentru a personaliza mai bine reclamele și conținutul. Performanța reclamelor și conținutului poate fi măsurată. Pot fi obținute informații despre utilizatorii care au văzut reclamele și conținutul. Aceste date pot fi utilizate pentru a dezvolta sau îmbunătăți experiența utilizatorilor, sistemele și software-ul.

Dând clic pe ‘Sunt de acord’, permiteți utilizarea cookie-urilor menționate, a identificatorilor de dispozitiv, balizelor web sau altor tehnologii similare. Setările pot fi modificate din browser-ul dispozitivului dumneavoastră.

În anumite scopuri, interesele legitime pot prima asupra consimțământului. Puteți citi mai multe informații în acest sens în Politica privind Confidențialitatea Datelor și Cookie.